SP3VSS-13 Weather Reports


time (UTC)temp
C
wind
direction
speed
KPH
gust
KPH
rain 1hr
cm
rain 24hr
cm
rain mn
cm
humidity
%
barometer
mb
20260905223421 13 0 6.4 9.7 0.00 0.00 0.00 91 1005.8
20260905221920 13 0 4.8 8.0 0.00 0.00 0.00 91 1005.8
20260905220420 13 0 4.8 8.0 0.00 0.00 0.00 91 1005.7
20260905214918 13 0 4.8 8.0 0.00 0.00 0.00 91 1005.6
20260905213417 13 22 3.2 3.2 0.00 0.00 0.00 91 1005.5
20260905211916 13 0 6.4 8.0 0.00 0.00 0.00 91 1005.4
20260905210415 13 22 3.2 3.2 0.00 0.00 0.00 91 1005.2
20260905204914 13 0 0.0 0.0 0.00 0.00 0.00 91 1005.2
20260905203413 13 0 0.0 0.0 0.00 0.00 0.00 91 1005.0
20260905201913 13 0 0.0 0.0 0.00 0.00 0.00 91 1004.8
20260905200412 13 0 6.4 8.0 0.00 0.00 0.00 91 1004.8
20260905194910 13 0 3.2 4.8 0.00 0.00 0.00 91 1004.7
20260905193410 13 22 6.4 6.4 0.00 0.00 0.00 91 1004.6
20260905191909 13 0 4.8 6.4 0.00 0.00 0.00 92 1004.4
20260905190408 13 0 6.4 8.0 0.00 0.00 0.00 91 1004.3
20260905184907 13 0 3.2 4.8 0.00 0.00 0.00 91 1004.1
20260905183406 13 0 3.2 4.8 0.00 0.00 0.00 91 1004.0
20260905181905 13 0 3.2 3.2 0.00 0.00 0.00 91 1004.0
20260905180404 13 338 4.8 6.4 0.00 0.00 0.00 91 1003.9
20260905174904 13 0 3.2 6.4 0.00 0.00 0.00 92 1003.6
20260905173402 13 0 0.0 0.0 0.00 0.00 0.00 91 1003.4
20260905171901 13 22 3.2 3.2 0.05 0.00 0.00 91 1003.3
20260905170400 13 22 6.4 8.0 0.20 0.00 0.00 89 1003.3
20260905164900 14 0 1.6 3.2 0.20 0.00 0.00 90 1003.2
20260905163359 15 0 8.0 9.7 0.15 0.00 0.00 90 1003.1
20260905161858 15 338 0.0 0.0 0.00 0.00 0.00 86 1003.4
20260905160356 15 338 1.6 3.2 0.00 0.00 0.00 86 1002.9
20260905154856 15 338 1.6 1.6 0.00 0.00 0.00 86 1002.2
20260905153355 15 22 3.2 4.8 0.13 0.00 0.00 86 1002.2
20260905151854 14 0 3.2 4.8 0.13 0.00 0.00 87 1002.4
20260905150353 16 0 4.8 9.7 0.13 0.00 0.00 84 1002.4
20260905144852 18 0 8.0 12.9 0.00 0.00 0.00 72 1003.1
20260905143351 18 338 6.4 9.7 0.00 0.00 0.00 66 1002.1
20260905141850 18 0 8.0 8.0 0.00 0.00 0.00 66 1001.9
20260905140349 18 0 4.8 9.7 0.00 0.00 0.00 65 1002.0
20260905133343 19 0 0.0 0.0 0.00 0.00 0.00 61 1001.8
20260905131843 19 0 9.7 9.7 0.00 0.00 0.00 61 1001.6
20260905130341 18 45 4.8 6.4 0.00 0.00 0.00 76 1001.7
20260905124840 18 22 3.2 6.4 0.00 0.00 0.00 76 1001.5
20260905123339 17 22 3.2 4.8 0.00 0.00 0.00 82 1001.5
20260905121838 16 22 3.2 4.8 0.00 0.00 0.00 86 1001.7
20260905120337 16 0 0.0 4.8 0.20 0.00 0.00 88 1001.8
20260905114836 14 0 3.2 3.2 0.20 0.00 0.00 89 1002.1
20260905113335 13 22 0.0 1.6 0.20 0.00 0.00 89 1002.1
20260905111834 17 338 0.0 0.0 0.00 0.00 0.00 67 1002.4
20260905110333 17 338 0.0 0.0 0.00 0.00 0.00 67 1002.2
20260905104832 17 338 4.8 8.0 0.00 0.00 0.00 67 1001.6
20260905103327 17 0 4.8 8.0 0.00 0.00 0.00 70 1001.6
20260905101826 19 315 6.4 8.0 0.00 0.00 0.00 64 1001.5
20260905100325 19 338 8.0 11.3 0.00 0.00 0.00 63 1001.3
20260905094825 20 0 6.4 8.0 0.00 0.00 0.00 63 1001.3
20260905093323 20 0 6.4 9.7 0.00 0.00 0.00 63 1001.4
20260905091823 20 22 4.8 8.0 0.00 0.00 0.00 61 1001.2
20260905090321 18 22 8.0 8.0 0.00 0.00 0.00 64 1001.1
20260905084820 18 315 0.0 0.0 0.00 0.00 0.00 66 1001.0
20260905083319 18 315 0.0 0.0 0.00 0.00 0.00 66 1000.8
20260905081818 18 315 8.0 9.7 0.00 0.00 0.00 66 1000.7
20260905080317 18 0 8.0 9.7 0.00 0.00 0.00 68 1000.5
20260905074816 18 0 6.4 14.5 0.00 0.00 0.00 69 1000.5
20260905073317 18 0 8.0 12.9 0.00 0.00 0.00 70 1000.4
20260905071814 17 22 8.0 9.7 0.00 0.00 0.00 72 1000.4
20260905070313 16 0 8.0 9.7 0.00 0.00 0.00 77 1000.2
20260905064812 15 338 8.0 8.0 0.00 0.00 0.00 84 1000.2
20260905063311 16 338 0.0 0.0 0.00 0.00 0.00 80 1000.2
20260905061807 16 338 6.4 9.7 0.00 0.00 0.00 80 1000.1
20260905060306 16 338 8.0 9.7 0.00 0.00 0.00 80 1000.0
20260905054805 15 0 0.0 0.0 0.00 0.00 0.00 86 999.8
20260905053305 15 0 8.0 8.0 0.00 0.00 0.00 86 999.7
20260905051803 15 22 4.8 6.4 0.00 0.00 0.00 86 999.5
20260905050302 15 0 0.0 0.0 0.00 0.00 0.00 86 999.4
20260905044801 15 0 0.0 0.0 0.00 0.00 0.00 86 999.3
20260905043300 15 0 6.4 6.4 0.00 0.00 0.00 86 999.1
20260905041800 16 22 0.0 0.0 0.00 0.00 0.00 82 999.0
20260905040258 16 22 0.0 0.0 0.00 0.00 0.00 82 998.8
20260905034757 16 22 0.0 0.0 0.00 0.00 0.00 82 998.6
20260905033256 16 22 0.0 0.0 0.00 0.00 0.00 82 998.4
20260905031755 16 22 0.0 0.0 0.00 0.00 0.00 82 998.3
20260905030254 16 22 0.0 0.0 0.00 0.00 0.00 82 998.1
20260905024753 16 22 0.0 0.0 0.00 0.00 0.00 82 997.9
20260905023252 16 22 6.4 6.4 0.00 0.00 0.00 82 997.7
20260905021751 16 0 6.4 8.0 0.00 0.00 0.00 82 997.9
20260905020250 16 0 4.8 8.0 0.00 0.00 0.00 81 997.7
20260905014749 16 338 4.8 6.4 0.00 0.00 0.00 83 997.5
20260905013248 16 22 4.8 6.4 0.00 0.00 0.00 84 997.4
20260905011747 16 22 3.2 3.2 0.00 0.00 0.00 85 997.1
20260905010247 16 0 4.8 6.4 0.00 0.00 0.00 85 997.3
20260905004746 16 22 0.0 0.0 0.00 0.00 0.00 88 997.1
20260905003244 16 22 0.0 0.0 0.00 0.00 0.00 88 996.7
20260905001744 16 22 0.0 0.0 0.00 0.00 0.00 88 996.3
20260905000242 16 22 0.0 0.0 0.00 0.00 0.00 88 996.4
20260904234741 16 22 6.4 6.4 0.00 0.00 0.00 88 996.4
20260904233240 16 0 0.0 0.0 0.00 0.00 0.00 89 996.4
20260904231740 16 0 8.0 9.7 0.00 0.00 0.00 89 996.0
20260904230239 16 338 8.0 9.7 0.00 0.00 0.00 89 995.7
20260904224738 16 22 8.0 9.7 0.00 0.00 0.00 88 995.5